Dewpoint
57 55 54 55 54 54 53 52 51 51 49 49 48 47 46 46 46 46 46 45 46 46 45 46 46 46 46 47 46 47 47 46 47 47 46 46 47 47 47 45 44 44 45 45 44 44 43 43 42 41 37 30
56 55 54 54 53 53 52 51 50 49 47 47 46 46 46 46 46 45 45 45 46 45 45 46 45 45 46 46 46 46 46 46 46 46 45 44 46 44 44 44 44 44 44 44 43 42 42 41 40 39 36 28
54 55 54 53 52 51 50 50 48 47 46 46 46 45 45 45 45 45 44 44 44 45 44 44 45 44 45 45 46 45 45 45 46 45 44 43 44 43 43 43 43 43 43 43 42 41 40 39 37 36 30 26
53 54 53 52 52 50 49 48 47 46 45 47 48 47 47 46 42 46 44 44 43 44 44 44 43 43 44 44 44 44 45 45 45 44 43 42 43 43 42 41 41 42 42 41 41 40 38 36 33 21 22 24
51 51 52 51 50 49 47 47 45 45 46 45 44 43 43 40 34 36 38 39 41 43 42 43 43 42 42 43 44 45 44 43 43 43 42 42 41 40 40 39 39 40 40 40 40 38 36 32 18 19 21 22
49 49 49 47 46 45 45 44 43 39 39 40 36 40 34 33 35 34 35 37 42 40 41 41 42 42 41 42 42 42 43 42 42 42 42 41 40 39 37 33 14 22 36 37 37 35 32 17 17 17 19 21
42 40 40 40 40 40 41 39 36 32 32 29 30 31 32 33 32 34 35 37 38 39 44 43 43 41 41 41 41 41 41 40 40 40 40 39 37 34 30 12 11 11 12 18 30 27 15 14 15 16 17 20
37 36 35 34 33 31 30 30 30 27 27 26 27 28 29 29 29 27 29 35 34 31 24 28 38 39 40 41 41 38 37 40 38 38 38 35 31 26 21 11 11 11 11 11 11 11 12 12 12 14 14 16
34 32 31 29 28 27 26 25 24 24 24 25 25 25 25 24 25 22 20 20 20 19 20 19 19 20 21 22 24 28 18 18 20 17 15 16 18 13 15 12 10 9 10 12 11 10 10 11 11 11 12 12
34 31 29 27 25 24 23 24 22 22 22 22 22 23 23 23 20 19 18 18 17 17 17 17 15 15 16 17 17 21 11 10 10 11 11 12 13 12 13 13 13 16 15 9 9 9 10 9 9 9 9 9
29 28 26 25 24 23 21 21 20 20 20 20 21 22 24 20 18 17 17 16 15 15 15 14 13 13 13 13 12 13 10 11 11 10 10 10 10 11 11 11 11 12 11 10 10 10 10 9 9 8 8 8
25 24 23 24 28 23 26 22 19 19 19 21 19 21 22 22 17 16 15 14 14 14 14 13 13 13 12 12 12 13 10 10 10 10 10 10 10 10 10 10 10 10 11 11 10 11 11 11 9 9 8 8
23 23 24 26 21 22 27 19 19 19 20 17 20 19 20 23 15 14 13 13 13 13 13 13 12 11 11 11 12 12 11 10 9 10 10 10 9 9 9 9 9 10 10 10 10 10 11 11 11 11 10 9
22 24 24 21 21 24 25 18 19 20 17 17 17 17 17 19 14 13 12 12 12 11 12 12 12 12 11 11 12 11 10 12 9 9 9 9 9 9 10 11 14 9 9 10 10 10 10 10 10 13 12 11
23 24 21 22 23 24 18 19 21 19 17 17 15 16 17 17 17 13 12 12 11 11 11 11 11 11 12 11 12 11 11 12 10 10 9 9 10 10 11 12 13 10 10 12 13 15 9 10 10 11 12 12
23 21 22 23 21 18 18 21 17 16 16 22 16 17 16 15 16 18 12 12 12 11 11 10 11 11 11 11 13 13 12 13 12 11 11 12 11 11 9 9 10 11 8 9 11 12 11 12 10 10 11 11
22 21 22 21 18 19 21 18 16 15 16 15 17 16 15 15 15 17 12 12 13 19 10 10 11 11 14 12 13 13 14 14 14 14 13 13 13 11 10 10 11 14 9 8 10 10 11 11 11 12 10 10
21 21 20 18 18 22 18 16 15 19 15 19 17 16 15 14 17 14 12 12 13 11 10 10 10 11 11 12 13 14 14 12 12 10 10 11 11 17 12 10 11 8 8 10 12 10 12 12 10 11 11 10
20 20 20 17 18 18 16 15 15 15 16 16 15 14 14 15 18 13 13 14 11 10 10 10 10 11 11 12 13 12 12 11 11 11 12 13 11 11 11 13 16 9 9 10 9 11 15 9 12 15 10 12
20 19 17 18 19 16 17 16 15 15 15 15 15 15 14 16 17 14 14 13 12 10 10 9 9 10 12 13 12 12 12 12 11 12 13 13 9 8 11 14 11 13 12 14 13 16 14 12 19 10 10 11
18 18 18 18 16 17 16 15 14 15 15 15 14 14 14 15 17 13 14 13 12 10 9 9 9 11 12 13 10 11 12 11 13 11 9 12 14 9 10 8 9 12 14 13 15 16 14 14 18 8 10 10
17 17 17 17 16 18 15 15 14 14 14 13 13 13 14 15 17 16 13 13 12 10 10 10 10 11 12 12 11 10 10 10 11 10 9 9 11 10 7 6 6 7 10 11 13 16 13 15 12 13 12 15
16 16 16 16 15 14 14 14 14 14 13 14 13 13 14 15 15 16 13 13 13 10 13 10 10 11 12 11 10 9 9 9 10 9 8 7 7 10 7 5 6 4 8 9 11 13 15 17 15 16 14 17
15 14 16 14 13 13 15 13 15 13 12 13 12 15 15 15 13 14 13 12 12 11 12 9 10 10 11 10 9 8 7 6 7 5 5 5 4 7 9 6 4 5 11 12 13 17 18 17 16 14 17 18
14 13 13 13 12 12 13 12 13 13 13 12 13 15 14 14 13 13 13 13 12 11 14 10 9 10 10 10 9 6 5 5 5 4 3 8 9 1 -1 -0 0 2 3 -2 -3 5 11 9 12 16 18 13
15 14 13 12 11 12 12 14 13 12 12 12 16 15 14 14 13 13 12 15 11 12 10 8 8 8 7 8 7 6 7 4 12 7 4 4 2 4 -2 -1 1 0 3 -3 -3 -2 -1 7 13 16 18 15
14 14 14 12 12 11 11 13 12 11 13 15 13 13 13 14 12 12 12 13 13 9 9 7 7 6 6 6 7 6 5 7 6 3 3 1 -1 0 7 6 6 1 3 5 10 6 2 3 -1 8 14 13
15 14 12 12 12 12 12 11 13 12 13 13 12 12 12 12 11 11 11 12 11 8 7 6 6 5 5 5 6 4 4 5 4 2 2 -1 2 -0 1 2 5 8 4 8 4 -4 2 1 0 -3 -5 2
14 14 15 14 13 14 12 12 11 10 10 11 11 10 10 10 10 10 10 10 10 9 6 5 5 5 5 4 5 4 4 4 3 2 1 -2 1 -1 3 3 4 7 4 3 8 12 4 -4 -4 5 1 -4
14 15 13 12 11 9 9 8 8 7 8 9 9 9 9 9 9 9 9 9 8 7 5 4 4 5 6 6 9 7 5 4 1 0 0 -1 0 -0 0 4 5 1 7 6 7 2 7 11 1 -2 -1 -8
16 12 12 12 12 14 11 13 11 8 8 8 8 8 7 7 8 8 8 7 6 5 5 3 3 4 5 8 8 8 5 5 6 6 4 3 2 2 12 4 3 5 4 2 1 0 1 2 -0 2 3 -5